Concordia, KS

1:02 AM CST on December 13, 2017 (GMT -0600)
Blosser Municipal

Weather History for KCNK - August, 2013

Change the Weather History Date:

Tuesday, August 20, 2013

  Actual Average Record
Temperature  
Mean Temperature 78 °F 77 °F  
Max Temperature 88 °F 88 °F 103 °F (1900)
Min Temperature 68 °F 65 °F 48 °F (1950)
Degree Days  
Heating Degree Days 0 0  
Month to date heating degree days 0 0  
Since 1 June heating degree days 22 13  
Since 1 July heating degree days 7 0  
Cooling Degree Days 13 12  
Month to date cooling degree days 149 260  
Year to date cooling degree days 901 1050  
Since 1 June cooling degree days 798 961  
Growing Degree Days 28 (Base 50)    
Moisture  
Dew Point 66 °F    
Average Humidity 67    
Maximum Humidity 84    
Minimum Humidity 50    
Precipitation  
Precipitation 0.00 in 0.10 in 2.38 in (1920)
Month to date precipitation 6.51 2.10  
Year to date precipitation 23.50 20.06  
Snow  
Snow 0.00 in 0.00 in 0.00 in ()
Month to date snowfall 0.0 0.0  
Year to date snowfall 20.3 13.7  
Since 1 July snowfall 0.0 0.0  
Snow Depth 0.00 in    
Sea Level Pressure  
Sea Level Pressure 29.94 in    
Wind  
Wind Speed 15 mph (South)    
Max Wind Speed 24 mph    
Max Gust Speed 30 mph    
Visibility 10 miles    
Events      
T = Trace of Precipitation, MM = Missing Value Source: NWS Daily Summary

Daily Weather History Graph

Daily Weather History Graph

Search for Another Location

Airport or City:

Trip Planner

Search our weather history database for the weather conditions in past years. The results will help you decide how hot, cold, wet, or windy it might be!

Date:

Astronomy

Aug. 20, 2013 Rise Set
Actual Time 6:47 AM CDT 8:19 PM CDT
Civil Twilight 6:19 AM CDT 8:47 PM CDT
Nautical Twilight 5:45 AM CDT 9:21 PM CDT
Astronomical Twilight 5:09 AM CDT 9:57 PM CDT
Moon 7:51 PM CDT (8/20) 6:19 AM CDT (8/20)
Length of Visible Light 14h 27m
Length of Day
13h 31m
Full, 100% of the Moon is Illuminated
Aug 20
Full
Aug 20
Full
Aug 28
Last Quarter
Sep 5
New
Sep 12
First Quarter

Hourly Weather History & Observations

Time (CDT) Temp. Heat Index Dew Point Humidity Pressure Visibility Wind Dir Wind Speed Gust Speed Precip Events Conditions
12:55 AM 72.0 °F - 66.0 °F 81% 29.96 in 10.0 mi South 11.5 mph 21.9 mph N/A   Clear
1:55 AM 72.0 °F - 64.9 °F 78% 29.95 in 10.0 mi South 12.7 mph 20.7 mph N/A   Clear
2:55 AM 71.1 °F - 64.9 °F 81% 29.94 in 10.0 mi South 17.3 mph - N/A   Clear
3:55 AM 71.1 °F - 64.9 °F 81% 29.94 in 10.0 mi South 13.8 mph - N/A   Clear
4:55 AM 70.0 °F - 64.9 °F 84% 29.94 in 10.0 mi South 15.0 mph 23.0 mph N/A   Clear
5:55 AM 69.1 °F - 64.9 °F 87% 29.94 in 10.0 mi South 15.0 mph 21.9 mph N/A   Clear
6:55 AM 69.1 °F - 64.9 °F 87% 29.96 in 10.0 mi South 15.0 mph - N/A   Clear
7:55 AM 70.0 °F - 64.9 °F 84% 29.97 in 10.0 mi South 16.1 mph 24.2 mph N/A   Clear
8:55 AM 72.0 °F - 64.9 °F 78% 29.98 in 10.0 mi SSW 18.4 mph 26.5 mph N/A   Clear
9:55 AM 75.0 °F - 64.9 °F 71% 29.98 in 10.0 mi SSW 18.4 mph 27.6 mph N/A   Clear
10:55 AM 78.1 °F - 66.0 °F 66% 29.97 in 10.0 mi SSW 19.6 mph - N/A   Clear
11:55 AM 82.0 °F 84.1 °F 66.0 °F 58% 29.97 in 10.0 mi SSW 17.3 mph 26.5 mph N/A   Clear
12:55 PM 84.0 °F 86.3 °F 66.0 °F 55% 29.95 in 10.0 mi SSW 15.0 mph - N/A   Clear
1:55 PM 86.0 °F 88.2 °F 66.0 °F 51% 29.94 in 10.0 mi South 16.1 mph 26.5 mph N/A   Clear
2:55 PM 87.1 °F 89.9 °F 66.9 °F 51% 29.93 in 10.0 mi South 13.8 mph - N/A   Clear
3:55 PM 87.1 °F 89.9 °F 66.9 °F 51% 29.92 in 10.0 mi SSW 17.3 mph 23.0 mph N/A   Clear
4:55 PM 87.1 °F 89.2 °F 66.0 °F 49% 29.91 in 10.0 mi South 17.3 mph - N/A   Clear
5:55 PM 86.0 °F 88.8 °F 66.9 °F 53% 29.91 in 10.0 mi South 12.7 mph - N/A   Clear
6:55 PM 84.0 °F 86.5 °F 66.9 °F 56% 29.91 in 10.0 mi South 10.4 mph - N/A   Clear
7:55 PM 80.1 °F 82.3 °F 66.9 °F 64% 29.91 in 10.0 mi South 9.2 mph - N/A   Clear
8:55 PM 77.0 °F - 66.9 °F 71% 29.92 in 10.0 mi South 10.4 mph - N/A   Clear
9:55 PM 77.0 °F - 66.0 °F 69% 29.94 in 10.0 mi South 12.7 mph - N/A   Clear
10:55 PM 73.9 °F - 66.0 °F 76% 29.95 in 10.0 mi South 10.4 mph - N/A   Clear
11:55 PM 73.9 °F - 66.0 °F 76% 29.94 in 10.0 mi South 13.8 mph - N/A   Clear